Tracking 17143 objects as of 25-May-2015
HD Live streaming from Space Station

CZ-3C R/B

Track CZ-3C R/B now!
10-day predictions
CZ-3C R/B is classified as:


NORAD ID: 36591
Int'l Code: 2010-024B
Perigee: 187.4 km
Apogee: 21,423.3 km
Inclination: 20.7 °
Period: 373.4 minutes
Semi major axis: 17176 km
RCS: 15.0139 m2 (large)
Launch date: June 2, 2010
Source: People's Republic of China (PRC)

Note: This is a ROCKET BODY
Your satellite tracking list
Your tracking list is empty





NASA's NSSDC Master Catalog

Two Line Element Set (TLE):
1 36591U 10024B   15144.38853911  .00066036 -70207-7  12819-2 0  9992
2 36591 020.6858 189.2784 6181746 212.2860 336.0958 03.85662548 54761

Source of the keplerian elements: AFSPC

N2YO: 437